Location: Unspecified
(0.0000°N, 0.0000°E)
Time: 10:32:51
(UTC+00:00)

USA 144 - Visible Passes

Search period start: 09 November 2025 00:00
Search period end: 19 November 2025 00:00
Orbit: 2685 x 3135 km, 63.4° (Epoch: 30 November)

Date Brightness Start Highest point End Pass type
(mag) Time Alt. Az. Time Alt. Az. Time Alt. Az.
09 Nov 6.0 21:57:21 10° SSE 22:01:22 18° SSE 22:01:22 18° SSE visible
10 Nov 6.2 00:28:17 10° SW 00:29:53 15° SW 00:29:53 15° SW visible
10 Nov 5.8 22:41:27 10° S 22:46:31 25° S 22:46:31 25° S visible
11 Nov 6.2 21:03:06 10° SE 21:03:10 10° SE 21:03:10 10° SE visible
11 Nov 5.9 23:27:29 10° SSW 23:31:41 24° SSW 23:31:41 24° SSW visible
12 Nov 5.8 21:42:54 10° S 21:48:22 22° SSE 21:48:22 22° SSE visible
13 Nov 6.2 00:15:01 10° SW 00:16:53 15° SW 00:16:53 15° SW visible
13 Nov 5.7 22:27:33 10° S 22:33:35 30° S 22:33:35 30° S visible
14 Nov 6.0 20:46:46 10° SSE 20:50:20 14° SE 20:50:20 14° SE visible
14 Nov 5.8 23:13:55 10° SSW 23:18:51 27° SSW 23:18:51 27° SSW visible
15 Nov 5.7 21:28:38 10° S 21:35:36 27° SSE 21:35:36 27° SSE visible
16 Nov 6.1 00:01:50 10° SW 00:04:08 16° SW 00:04:08 16° SW visible
16 Nov 5.5 22:13:44 10° SSW 22:20:55 35° S 22:20:55 35° S visible
17 Nov 5.8 20:31:29 10° SSE 20:37:44 18° SE 20:37:44 18° SE visible
17 Nov 5.7 23:00:26 10° SSW 23:06:16 30° SSW 23:06:16 30° SSW visible
18 Nov 5.4 21:14:30 10° S 21:23:07 33° SSE 21:23:07 33° SSE visible
